[[{"header":{"parameterUnit":"m.s-1","parameterCategory":1,"la1":30.2991,"la2":30.254,"lo1":-89.0895,"lo2":-89.0444,"dy":0.0017,"dx":0.0017,"nx":28,"ny":28,"refTime":"2024-06-02T09:00:00:Z","depth":0,"parameterNumber":2,"parameterNumberName":"U-component_of_WINDS"},"data":[0,0,0,0,0,0,0,0,0,0,0,0,0,0,0,0,0,0,0,0,0,0,0,0,0,0,0,0,0,0,0,0,0,0,0,0,0,0,0,0,0,0,0,0,0,0,0,0,0,0,0,0,0,0,0,0,0,0,-0.0127,-0.0126,0,-0.0063,-0.0062,-0.0061,-0.0041,-0.0041,-0.0041,-0.0042,0.0027,0.0029,0.0031,0,0,0,0,0,0,0,0,0,0,0,0,0,-0.023,-0.0228,-0.0127,-0.0126,-0.0125,-0.0063,-0.0062,-0.0061,-0.0041,-0.0041,-0.0042,-0.0042,0.0026,0.0029,0.0031,0,0,0,0,0,0,0,0,0,0,0,0,0,-0.0177,-0.0228,-0.0127,-0.0108,-0.0105,-0.0063,-0.0062,-0.0061,-0.0041,-0.0041,-0.0042,-0.0042,0.0025,0.0028,0.0032,0.006,0,0,0.0041,0.0043,0,0,0,0,0,0,0,0,-0.018,-0.0174,-0.0111,-0.0109,-0.0106,-0.006,-0.0073,-0.002,-0.0041,-0.0065,-0.0042,-0.0042,-0.0001,0.0004,0.0017,0.0064,0.0067,0.0042,0.0044,0.0045,0.0046,0,0,0,0,0,0,0,-0.0184,-0.0176,-0.0101,-0.011,-0.0107,-0.0102,-0.0095,-0.0063,-0.0031,-0.0063,-0.0061,-0.0054,-0.0,0.0014,0.0019,0.0068,0.0042,0.0044,0.0046,0.0048,0.014,0.0141,0,0,0,0,0,0,-0.0191,-0.0179,-0.0103,-0.0099,-0.0145,-0.0099,-0.0092,-0.0074,-0.0032,-0.0026,-0.0054,-0.0054,0.0009,0.0015,0.0021,0.0057,0.0045,0.0048,0.005,0.014,0.014,0.0141,0,0,0,0,0,0,-0.0194,-0.0185,-0.0106,-0.0139,-0.0129,-0.0097,-0.0078,-0.0073,-0.0059,-0.0025,-0.0019,-0.0046,0.0009,0.0017,0.005,0.006,0.0049,0.0052,0.0139,0.014,0.0141,0.0129,0,0,0,0,0,0,-0.0197,-0.0186,-0.0175,-0.0139,-0.0127,-0.0079,-0.0077,-0.0071,-0.0054,-0.0053,-0.0015,-0.001,0.0009,0.0045,0.0053,0.0064,0.0055,0.0138,0.0139,0.014,0.0129,0.013,0.013,0,0,0,0,0,-0.02,-0.018,-0.0174,-0.0165,-0.0113,-0.0078,-0.0071,-0.0051,-0.0053,-0.0042,-0.002,-0.0011,0.0057,0.0048,0.0058,0.0069,0.0138,0.0139,0.014,0.0129,0.0129,0.013,0,0,0,0,0,0,-0.0214,-0.0175,-0.0168,-0.0135,-0.0111,-0.0075,-0.006,-0.0051,-0.0024,-0.0024,0.0,0.0009,0.004,0.0058,0.0048,0.0099,0.0098,0.0101,0.0086,0.0087,0.0088,0.0083,0.0057,0,0,0,0,0,-0.0213,-0.0189,-0.0156,-0.013,-0.0118,-0.0091,-0.0075,-0.0063,-0.0035,-0.0024,-0.0,0.0027,0.0054,0.0072,0.0099,0.0132,0.014,0.0144,0.0145,0.0145,0.0148,0.0165,0.0168,0.0145,0.0145,0.0145,0,0,-0.0211,-0.0187,-0.0173,-0.0132,-0.0111,-0.0087,-0.0082,-0.0056,-0.0038,-0.002,0.0012,0.0031,0.0062,0.0095,0.0111,0.0111,0.0156,0.0147,0.0147,0.0149,0.0167,0.0169,0.0171,0.0146,0.0146,0.0146,0,0,-0.0195,-0.0174,-0.0151,-0.0131,-0.01,-0.0082,-0.0077,-0.0043,-0.003,0.0002,0.0016,0.0039,0.0086,0.0107,0.0124,0.0147,0.0156,0.0155,0.0158,0.0176,0.0177,0.0179,0.0187,0.0189,0.0157,0.0157,0.0157,0,-0.0196,-0.016,-0.014,-0.0115,-0.0098,-0.0082,-0.0058,-0.0039,-0.0,0.0011,0.0011,0.0069,0.0092,0.0129,0.0134,0.0148,0.0155,0.0151,0.0175,0.0177,0.0179,0.0187,0.0189,0.0157,0.0157,0.0157,0.0157,0,-0.0163,-0.0138,-0.0122,-0.0087,-0.0068,-0.0044,-0.002,-0.0003,0.0008,0.0026,0.0058,0.0086,0.0118,0.0128,0.014,0.0167,0.0166,0.017,0.017,0.018,0.0188,0.0191,0.0156,0.0157,0.0157,0.0157,0,0,-0.0153,-0.0108,-0.0103,-0.0087,-0.0053,-0.0032,-0.0008,0.0023,0.0037,0.0063,0.0084,0.0123,0.0126,0.0146,0.016,0.0175,0.019,0.0177,0.0178,0.0178,0.0222,0.0218,0.0221,0.0197,0.0197,0.0198,0.0219,0,-0.0133,-0.0089,-0.0071,-0.0035,-0.0012,0.0003,0.0024,0.0048,0.0065,0.0088,0.0107,0.0134,0.0137,0.0148,0.0164,0.0185,0.0199,0.0184,0.0217,0.0218,0.0208,0.0225,0.0222,0.024,0.0222,0.0222,0.0223,0,-0.0104,-0.0079,-0.0042,-0.0011,-0.0,0.0019,0.0047,0.0069,0.0096,0.0108,0.0128,0.0141,0.0168,0.0166,0.0203,0.0192,0.0207,0.0219,0.0221,0.0225,0.0221,0.0229,0.0246,0.0249,0.0228,0.0227,0.0227,0,-0.0101,-0.0059,-0.0031,-0.0018,0.0019,0.0032,0.0048,0.0075,0.0092,0.0117,0.0128,0.0157,0.0173,0.0195,0.0216,0.0212,0.0251,0.025,0.0261,0.0261,0.0269,0.0268,0.0289,0.0279,0.0279,0.0279,0.0279,0,-0.0081,-0.0059,-0.0029,-0.0012,0.0013,0.0034,0.0058,0.0076,0.0099,0.012,0.0135,0.0155,0.0181,0.0204,0.022,0.0249,0.0256,0.0266,0.027,0.0264,0.0263,0.0274,0.0273,0.0279,0.0279,0.0279,0.0279,0,-0.0074,-0.0053,-0.0022,0.0009,0.0018,0.0035,0.0063,0.008,0.0097,0.0123,0.0131,0.0158,0.0186,0.0208,0.0245,0.0256,0.0286,0.0291,0.0276,0.0278,0.0288,0.0286,0.0316,0.0321,0.0308,0.0308,0.0308,0,-0.0062,-0.0045,-0.0012,0.0002,0.0018,0.0041,0.0058,0.0079,0.0096,0.0127,0.0141,0.0169,0.0193,0.0237,0.0261,0.0289,0.0294,0.0303,0.0299,0.0292,0.0294,0.0292,0.0294,0.0303,0.0303,0.0303,0.0303,0,-0.0045,-0.0036,-0.0013,0.0014,0.0033,0.0055,0.0077,0.0089,0.0114,0.0132,0.0159,0.0178,0.0214,0.0243,0.0273,0.029,0.0301,0.0304,0.0308,0.0302,0.0293,0.0298,0.0277,0.0303,0.0303,0.0303,0.0303,0.0303,-0.0035,-0.002,0.0006,0.0031,0.0049,0.007,0.0087,0.0106,0.0129,0.0159,0.017,0.0199,0.0225,0.0267,0.0284,0.0307,0.0308,0.0314,0.0316,0.0317,0.0316,0.0289,0.0313,0.0313,0.0313,0.0313,0.0313,0,-0.0017,-0.0001,0.0022,0.0052,0.0072,0.0079,0.0104,0.012,0.0144,0.0167,0.019,0.0221,0.0248,0.0274,0.0302,0.0316,0.0321,0.0322,0.0322,0.0325,0.0313,0.0307,0.0317,0.0317,0.0317,0.0317,0.0317,0.0317,-0.0006,0.0021,0.0033,0.0068,0.0085,0.0112,0.0126,0.0145,0.0163,0.0197,0.0219,0.0235,0.0259,0.0289,0.0314,0.0321,0.0331,0.0331,0.0339,0.0327,0.0326,0.0326,0.0319,0.0333,0.0333,0.0349,0.0349,0.0349]},{"header":{"parameterUnit":"m.s-1","parameterCategory":1,"la1":30.2991,"la2":30.254,"lo1":-89.0895,"lo2":-89.0444,"dy":0.0017,"dx":0.0017,"nx":28,"ny":28,"refTime":"2024-06-02T09:00:00:Z","depth":0,"parameterNumber":3,"parameterNumberName":"V-component_of_WINDS"},"data":[0,0,0,0,0,0,0,0,0,0,0,0,0,0,0,0,0,0,0,0,0,0,0,0,0,0,0,0,0,0,0,0,0,0,0,0,0,0,0,0,0,0,0,0,0,0,0,0,0,0,0,0,0,0,0,0,0,0,3.9116,3.9115,0,3.9029,3.9028,3.9027,3.8914,3.8912,3.891,3.8908,3.8818,3.8818,3.8817,0,0,0,0,0,0,0,0,0,0,0,0,0,3.9182,3.9181,3.9116,3.9115,3.9114,3.9029,3.9028,3.9027,3.8914,3.8912,3.891,3.8907,3.8818,3.8818,3.8817,0,0,0,0,0,0,0,0,0,0,0,0,0,3.913,3.9181,3.9116,3.9047,3.904,3.9029,3.9028,3.9027,3.8915,3.8912,3.8909,3.8906,3.8819,3.8818,3.8817,3.8866,0,0,3.8814,3.8813,0,0,0,0,0,0,0,0,3.9133,3.9128,3.9058,3.9052,3.9044,3.8979,3.9018,3.8973,3.8915,3.8962,3.8908,3.8905,3.8874,3.8868,3.8858,3.8862,3.8858,3.8814,3.8813,3.8813,3.8812,0,0,0,0,0,0,0,3.9137,3.9131,3.9081,3.9057,3.9049,3.902,3.901,3.9009,3.8935,3.8958,3.8949,3.8941,3.8869,3.8859,3.8855,3.8857,3.8814,3.8813,3.8812,3.8812,3.8895,3.8897,0,0,0,0,0,0,3.9151,3.9134,3.9084,3.9079,3.9083,3.9021,3.9009,3.9003,3.8934,3.8921,3.8943,3.8936,3.8862,3.8856,3.8852,3.8903,3.8813,3.8812,3.8811,3.8892,3.8895,3.8898,0,0,0,0,0,0,3.9153,3.9147,3.9088,3.9104,3.9094,3.9023,3.9017,3.9003,3.8992,3.8923,3.8909,3.8947,3.886,3.8853,3.8863,3.8899,3.8811,3.881,3.8889,3.8893,3.8897,3.9009,0,0,0,0,0,0,3.9155,3.9149,3.9167,3.9106,3.9094,3.9102,3.9019,3.9003,3.8991,3.8981,3.8923,3.8911,3.8857,3.8865,3.8862,3.8896,3.8809,3.8885,3.8891,3.8895,3.9001,3.9016,3.9029,0,0,0,0,0,3.9158,3.9202,3.9169,3.9163,3.9116,3.9104,3.9097,3.9035,3.8995,3.9012,3.8967,3.8912,3.8896,3.8867,3.8863,3.8897,3.8882,3.8889,3.8895,3.8995,3.9013,3.9028,0,0,0,0,0,0,3.927,3.9193,3.9155,3.9181,3.915,3.9085,3.9105,3.9057,3.9036,3.9027,3.8951,3.8939,3.8958,3.8928,3.8898,3.894,3.8881,3.8886,3.8958,3.8975,3.8988,3.8994,3.8809,0,0,0,0,0,3.9297,3.9295,3.9227,3.9257,3.9243,3.9177,3.917,3.9125,3.9089,3.9075,3.9032,3.8999,3.8986,3.8979,3.8963,3.8997,3.8982,3.9018,3.9032,3.9043,3.9049,3.9063,3.9077,3.8919,3.8919,3.8919,0,0,3.9354,3.9312,3.9315,3.9278,3.9249,3.9247,3.9167,3.9168,3.9166,3.9075,3.9082,3.9049,3.9007,3.9029,3.9036,3.9005,3.9089,3.9051,3.9061,3.906,3.9071,3.9086,3.9099,3.8923,3.8923,3.8922,0,0,3.9457,3.9426,3.9446,3.9418,3.9375,3.933,3.9336,3.9278,3.9252,3.9258,3.919,3.9185,3.9165,3.9138,3.9121,3.9213,3.9161,3.9211,3.9281,3.9296,3.9308,3.9319,3.935,3.9363,3.9216,3.9217,3.9217,0,3.9533,3.9528,3.9462,3.9468,3.9453,3.9372,3.9391,3.9367,3.9321,3.9312,3.9278,3.925,3.9216,3.923,3.9252,3.9242,3.9244,3.9216,3.9312,3.9322,3.9331,3.936,3.9372,3.9223,3.9222,3.9221,3.9221,0,3.9623,3.9621,3.9642,3.96,3.9588,3.9601,3.9536,3.9531,3.9488,3.9447,3.9453,3.9409,3.9383,3.9383,3.9341,3.939,3.9372,3.9326,3.9265,3.9353,3.9379,3.939,3.9232,3.9229,3.9228,3.9226,0,0,3.9793,3.9714,3.9723,3.9702,3.9649,3.9645,3.9654,3.9628,3.9625,3.9596,3.96,3.9585,3.9542,3.9523,3.9477,3.949,3.9564,3.9442,3.944,3.9465,3.9614,3.9648,3.9662,3.9529,3.9531,3.9533,3.9617,0,3.9884,3.9895,3.9836,3.9862,3.9858,3.9781,3.9788,3.9755,3.9717,3.9708,3.9665,3.9655,3.96,3.9588,3.9598,3.9553,3.9592,3.9546,3.9531,3.9531,3.9543,3.9676,3.9712,3.9793,3.9627,3.9629,3.963,0,3.9992,3.9969,3.9995,3.9939,3.9935,3.9943,3.9914,3.9907,3.9868,3.9839,3.9819,3.9765,3.9768,3.9711,3.9714,3.9684,3.9674,3.9651,3.9653,3.9648,3.9585,3.9673,3.9818,3.983,3.9645,3.9644,3.9643,0,4.0112,4.0087,4.0099,4.0084,4.002,4.0027,4.0,3.9958,3.9947,3.9921,3.9913,3.9889,3.9875,3.9857,3.9798,3.9762,3.9807,3.9745,3.9782,3.9783,3.9793,3.9793,3.9938,3.979,3.979,3.979,3.979,0,4.0219,4.0237,4.0152,4.0159,4.0177,4.0109,4.0128,4.0094,4.0057,4.0056,3.9988,3.9987,3.991,3.9901,3.9855,3.9863,3.9857,3.9833,3.9821,3.9839,3.9842,3.983,3.9823,3.9793,3.9792,3.9792,3.9791,0,4.0355,4.0299,4.0306,4.0245,4.023,4.0246,4.0192,4.0196,4.0154,4.0153,4.0148,4.0082,4.0068,4.0007,3.9978,3.9947,3.997,3.9946,3.9984,3.9975,4.0015,4.0011,4.0156,4.017,4.0015,4.0017,4.0018,0,4.0426,4.0439,4.0379,4.0373,4.035,4.0342,4.0329,4.0262,4.0252,4.0209,4.0217,4.0197,4.0178,4.0158,4.0107,4.0084,4.0058,4.011,4.0054,4.0071,4.0057,4.0056,4.0056,4.0122,4.0124,4.0125,4.0127,0,4.0559,4.053,4.0516,4.0491,4.0479,4.0456,4.0429,4.0428,4.0354,4.0346,4.033,4.0316,4.0286,4.0266,4.0235,4.0206,4.0154,4.0145,4.0152,4.017,4.0191,4.0179,4.0015,4.0142,4.014,4.0139,4.0138,4.0138,4.0663,4.067,4.0629,4.0615,4.0588,4.0564,4.0564,4.0523,4.0509,4.048,4.0442,4.0431,4.039,4.0343,4.0318,4.0308,4.0279,4.0289,4.0292,4.0295,4.0304,4.0194,4.0302,4.0301,4.0301,4.0301,4.03,0,4.0791,4.0761,4.0748,4.0713,4.0702,4.0655,4.0623,4.0616,4.0608,4.0575,4.0557,4.0539,4.052,4.0467,4.0442,4.0444,4.042,4.044,4.0438,4.0432,4.0332,4.0327,4.046,4.046,4.046,4.046,4.046,4.046,4.0856,4.0865,4.0832,4.0826,4.0795,4.0785,4.0771,4.0748,4.0722,4.0705,4.0689,4.0655,4.0613,4.0585,4.0565,4.055,4.0543,4.0571,4.0548,4.0455,4.044,4.0425,4.042,4.0571,4.0571,4.0649,4.065,4.0651]}]]